Date,TemperatureHighF,TemperatureAvgF,TemperatureLowF,DewpointHighF,DewpointAvgF,DewpointLowF,HumidityHigh,HumidityAvg,HumidityLow,PressureMaxIn,PressureMinIn,WindSpeedMaxMPH,WindSpeedAvgMPH,GustSpeedMaxMPH,PrecipitationSumIn
2013-1-6,27.0,26.9,26.0,23.0,22.9,22.0,85,85,85,30.11,30.07,10,9,16,0.01
2013-1-7,34.0,28.8,20.0,27.0,24.0,18.0,93,82,73,30.38,30.14,17,8,24,0.00
2013-1-8,39.0,32.3,26.0,30.0,26.4,22.0,87,79,69,30.23,30.13,9,5,17,0.00
2013-1-9,45.0,40.3,32.0,36.0,31.5,23.0,82,71,53,30.47,30.08,16,8,28,0.01
2013-1-10,40.0,33.1,24.0,36.0,27.9,21.0,93,81,69,30.51,30.04,17,6,26,0.22
2013-1-11,55.0,48.7,38.0,52.0,45.9,36.0,97,90,82,30.04,29.73,15,8,28,0.56
2013-1-12,59.0,52.2,46.0,51.0,47.7,44.0,95,85,72,29.94,29.79,11,5,19,0.34
2013-1-13,45.0,34.7,23.0,44.0,32.9,19.0,96,93,86,30.14,29.76,14,7,23,0.97
2013-1-14,24.0,20.4,17.0,20.0,16.7,13.0,92,85,79,30.43,30.14,13,5,24,0.01
2013-1-15,29.0,22.2,14.0,22.0,18.1,12.0,93,85,73,30.40,30.11,8,1,11,0.00
2013-1-16,36.0,28.8,22.0,28.0,22.5,19.0,93,78,54,30.11,29.87,15,6,26,0.00
2013-1-17,35.0,30.1,22.0,29.0,23.3,15.0,89,76,59,30.35,30.01,16,7,26,0.00
2013-1-18,39.0,29.5,21.0,27.0,19.9,14.0,82,68,56,30.41,30.01,21,10,31,0.00
2013-1-19,49.0,42.5,38.0,37.0,31.8,27.0,75,66,57,30.01,29.75,19,12,31,0.00
2013-1-20,42.0,23.0,18.0,34.0,14.3,10.0,83,69,46,30.22,29.76,27,10,43,0.00
2013-1-21,19.0,13.3,7.0,11.0,4.2,-3.0,85,66,58,30.17,30.04,18,10,29,0.00
2013-1-22,12.0,7.6,3.0,-1.0,-2.3,-4.0,72,64,50,30.31,30.17,12,9,21,0.00
2013-1-23,19.0,14.4,9.0,16.0,5.9,-1.0,89,69,55,30.28,30.06,12,8,22,0.00
2013-1-24,21.0,15.5,8.0,17.0,6.6,1.0,90,69,43,30.58,30.11,11,3,20,0.00
2013-1-25,24.0,20.9,18.0,21.0,15.4,8.0,90,79,65,30.42,29.98,10,6,17,0.00
2013-1-26,27.0,25.1,22.0,22.0,19.9,18.0,88,81,73,30.40,30.03,9,4,14,0.00
2013-1-27,32.0,26.3,21.0,29.0,21.2,16.0,91,81,75,30.41,30.09,13,6,22,0.00
2013-1-28,49.0,46.3,38.0,48.0,45.3,37.0,98,97,96,29.97,29.89,13,6,21,0.15
2013-1-29,60.0,54.8,46.0,57.0,53.5,45.0,99,95,90,29.95,29.37,20,11,33,0.45
2013-1-30,62.0,46.1,29.0,58.0,44.3,26.0,98,94,85,29.44,29.18,18,10,33,1.05
2013-1-31,29.0,18.3,11.0,25.0,12.5,5.0,89,78,67,30.00,29.45,19,13,30,0.04